Home > Weather > Marburg > Past weeks

Flag for Germany Past Weather in Marburg, Hesse, Germany — Yesterday and Last 2 Weeks

Now
59 °F

Passing clouds.


Feels Like: 58 °F
Forecast: 55 / 68 °F
Wind: 6 mph from West

Location: Fritzlar Airport

Current Time: Jun 1, 2016 at 3:56:38 AM

Latest Report: Jun 1, 2016 at 3:20 AM


Visibility: N/A

Pressure: 29.89 "Hg

Humidity: 88%

Dew Point: 55 °F

Location of MarburgLocation

Past Weather in Marburg — Graph

°F

Marburg Temperature Yesterday

Maximum temperature yesterday: 70 °F (at 4:20 PM)
Minimum temperature yesterday: 57 °F (at 2:20 AM)
Average temperature yesterday: 63 °F

High & Low Weather Summary for the Past Weeks

 TemperatureHumidityPressure
High79 °F (May 22, 2:20 PM)100% (May 20, 1:00 AM)30.09 "Hg (May 20, 1:00 AM)
Low39 °F (May 20, 3:20 AM)41% (May 22, 7:20 PM)29.56 "Hg (May 30, 4:20 AM)
Average58 °F76%29.90 "Hg
* Reported May 17 2:20 AM — Jun 1 2:20 AM, Marburg, Weather by CustomWeather, © 2016

Note: Actual official high and low records may vary slightly from our data, if they occured in-between our weather recording intervals... More about our weather records

Advertising

Marburg Weather History for the Previous 24 Hours

Scroll right to see more
 ConditionsComfort  
Time TempWeatherWind HumidityBarometerVisibility
2:20 AM
Wed, Jun 1
59 °FOvercast.5 mph94%29.92 "HgN/A
1:20 AM59 °FLight rain. Overcast.2 mph88%29.92 "HgN/A
12:20 AM61 °FPassing clouds.3 mph77%29.92 "HgN/A
11:20 PM
Tue, May 31
61 °FPassing clouds.7 mph83%29.92 "HgN/A
10:20 PM59 °FPartly sunny.2 mph88%29.89 "HgN/A
9:20 PM63 °FScattered clouds.3 mph83%29.89 "HgN/A
8:20 PM66 °FBroken clouds.3 mph68%29.89 "HgN/A
7:20 PM70 °FBroken clouds.2 mph50%29.89 "HgN/A
6:20 PM68 °FPartly sunny.5 mph56%29.86 "HgN/A
5:20 PM68 °FPartly sunny.3 mph56%29.86 "HgN/A
4:20 PM70 °FPartly sunny.7 mph53%29.86 "HgN/A
3:20 PM68 °FPartly sunny.7 mph56%29.86 "HgN/A
2:20 PM68 °FPartly sunny.5 mph56%29.86 "HgN/A
1:20 PM68 °FPartly sunny.7 mph60%29.86 "HgN/A
12:20 PM66 °FPartly sunny.8 mph60%29.86 "HgN/A
11:20 AM66 °FBroken clouds.7 mph60%29.83 "HgN/A
10:20 AM66 °FScattered clouds.7 mph60%29.83 "HgN/A
9:20 AM63 °FScattered clouds.7 mph73%29.83 "HgN/A
8:20 AM63 °FPassing clouds.3 mph73%29.80 "HgN/A
7:20 AM59 °FPartly sunny.2 mph82%29.80 "HgN/A
6:20 AM59 °FPartly sunny.3 mph82%29.80 "HgN/A
5:20 AM57 °FPassing clouds.2 mph88%29.77 "HgN/A
4:20 AM57 °FPassing clouds.1 mph88%29.77 "HgN/A
3:20 AM59 °FPassing clouds.6 mph88%29.74 "HgN/A
Weather by CustomWeather, © 2016

See weather overviewHow to use our weather pages